Weather History for Farmington, NM

Change the Weather History Date:

Tuesday, December 3, 2013

  Actual Average Record
Temperature  
Mean Temperature 40 °F -  
Max Temperature 55 °F 44 °F 60 °F (2010)
Min Temperature 25 °F 22 °F 3 °F (1991)
Degree Days  
Heating Degree Days 25    
Moisture  
Dew Point 24 °F    
Average Humidity 55    
Maximum Humidity 88    
Minimum Humidity 20    
Precipitation  
Precipitation 0.00 in - - ()
Sea Level Pressure  
Sea Level Pressure 29.70 in    
Wind  
Wind Speed 8 mph (ESE)    
Max Wind Speed 16 mph    
Max Gust Speed 24 mph    
Visibility 10 miles    
Events      
Averages and records for this station are not official NWS values.
T = Trace of Precipitation, MM = Missing Value Source: NWS Daily Summary

Daily Weather History Graph

Daily Weather History Graph

Search for Another Location

Airport:

Trip Planner

Search our weather history database for the weather conditions in past years. The results will help you decide how hot, cold, wet, or windy it might be!

Date:

Astronomy

Dec. 03, 2013 Rise Set
Actual Time 7:08 AM MST 4:56 PM MST
Civil Twilight 6:40 AM MST 5:25 PM MST
Nautical Twilight 6:08 AM MST 5:57 PM MST
Astronomical Twilight 5:37 AM MST 6:28 PM MST
Moon 7:42 AM MST (12/3) 6:02 PM MST (12/3)
Length of Visible Light 10h 44m
Length of Day
9h 47m
New Moon, 1% of the Moon is Illuminated
Dec 3
New Moon
Dec 9
First Quarter
Dec 17
Full
Dec 25
Last Quarter
Jan 1
New

Hourly Weather History & Observations

Time (MST) Temp. Windchill Dew Point Humidity Pressure Visibility Wind Dir Wind Speed Gust Speed Precip Events Conditions
12:53 AM 28.9 °F 22.8 °F 25.0 °F 85% 29.94 in 10.0 mi ENE 5.8 mph - N/A   Clear
1:53 AM 28.0 °F 20.0 °F 25.0 °F 88% 29.91 in 10.0 mi East 8.1 mph - N/A   Clear
2:53 AM 28.9 °F 19.8 °F 25.0 °F 85% 29.87 in 10.0 mi East 10.4 mph - N/A   Clear
3:53 AM 28.0 °F 19.3 °F 24.1 °F 85% 29.84 in 10.0 mi East 9.2 mph - N/A   Clear
4:53 AM 26.1 °F 18.4 °F 23.0 °F 88% 29.86 in 10.0 mi East 6.9 mph - N/A   Partly Cloudy
5:53 AM 26.1 °F 19.4 °F 23.0 °F 88% 29.84 in 10.0 mi ENE 5.8 mph - N/A   Clear
6:53 AM 26.1 °F 20.5 °F 23.0 °F 88% 29.86 in 10.0 mi East 4.6 mph - N/A   Clear
7:53 AM 28.0 °F 20.0 °F 25.0 °F 88% 29.83 in 10.0 mi East 8.1 mph - N/A   Clear
8:53 AM 32.0 °F 25.6 °F 26.1 °F 79% 29.83 in 10.0 mi ESE 6.9 mph - N/A   Clear
9:53 AM 39.0 °F 32.8 °F 28.0 °F 65% 29.81 in 10.0 mi East 9.2 mph - N/A   Clear
10:53 AM 42.1 °F 37.1 °F 27.0 °F 55% 29.77 in 10.0 mi East 8.1 mph - N/A   Clear
11:53 AM 46.9 °F - 27.0 °F 46% 29.70 in 10.0 mi ESE 6.9 mph - N/A   Clear
12:53 PM 48.9 °F - 26.1 °F 41% 29.65 in 10.0 mi East 4.6 mph - N/A   Clear
1:53 PM 52.0 °F - 23.0 °F 32% 29.61 in 10.0 mi East 5.8 mph - N/A   Clear
2:53 PM 54.0 °F - 21.9 °F 29% 29.57 in 10.0 mi ENE 3.5 mph - N/A   Clear
3:53 PM 52.0 °F - 24.1 °F 34% 29.56 in 10.0 mi ENE 5.8 mph - N/A   Clear
4:53 PM 48.0 °F - 24.1 °F 39% 29.56 in 10.0 mi East 8.1 mph - N/A   Clear
5:53 PM 48.0 °F - 24.1 °F 39% 29.56 in 10.0 mi WSW 8.1 mph - N/A   Clear
6:53 PM 48.9 °F - 24.1 °F 38% 29.55 in 10.0 mi Calm Calm - N/A   Scattered Clouds
7:53 PM 46.9 °F - 25.0 °F 42% 29.55 in 10.0 mi WSW 11.5 mph - N/A   Mostly Cloudy
8:53 PM 48.9 °F - 25.0 °F 39% 29.53 in 10.0 mi WSW 13.8 mph - N/A   Clear
9:53 PM 48.9 °F - 21.0 °F 33% 29.52 in 10.0 mi SW 15.0 mph - N/A   Clear
10:53 PM 48.0 °F - 21.0 °F 34% 29.53 in 10.0 mi SW 16.1 mph 24.2 mph N/A   Clear
11:53 PM 46.9 °F - 21.0 °F 36% 29.52 in 10.0 mi SW 10.4 mph 20.7 mph N/A   Clear